Regional Weather Roundup
Issued by NWS

Home | Current Version | Previous Version | Graphics & Text | Print | Product List | Glossary On
Versions: 1 2 3 4 5 6 7 8 9 10 11 12 13 14 15 16 17 18 19 20 21 22 23 24 25 26 27 28 29 30 31 32 33 34 35 36 37 38 39 40 41 42 43 44 45 46 47 48 49 50
000
ASUS43 KDTX 100110
RWRMI
MICHIGAN HOURLY REGIONAL WEATHER ROUNDUP
NATIONAL WEATHER SERVICE DETROIT/PONTIAC MI
800 PM EST FRI DEC 09 2016

NOTE: "FAIR" INDICATES FEW OR NO CLOUDS BELOW 12,000 FEET WITH NO
SIGNIFICANT WEATHER AND/OR OBSTRUCTION TO VISIBILITY.

MIZ047>049-052>055-059>063-066>070-074>076-081>083-100200-
SOUTHEAST LOWER MICHIGAN

CITY           SKY/WX    TMP DP  RH WIND       PRES   REMARKS
ADRIAN         CLOUDY    25  19  78 W10       30.44S WCI  15
ALMA           PTCLDY    24  15  71 W8        30.39S WCI  14
ANN ARBOR      CLOUDY    26  18  71 SW8       30.41R WCI  18
BAD AXE        CLOUDY    26  21  83 W7        30.34S WCI  18
CARO           CLOUDY    26  18  69 W8        30.36S WCI  18
DETROIT CITY   CLOUDY    27  19  72 W6        30.40S WCI  20
DETROIT        CLOUDY    27  20  75 W12       30.42S WCI  17
FLINT          CLOUDY    25  18  74 W10       30.39R WCI  15
GROSSE ILE     CLOUDY    28  16  59 W12G17    30.41R WCI  18
HILLSDALE      FLURRIES  23  19  86 W8        30.40S WCI  14
HOWELL         CLOUDY    25  19  77 W10       30.39S WCI  14

CITY           SKY/WX    TMP DP  RH WIND       PRES   REMARKS
JACKSON        FLURRIES  24  18  77 W10       30.41S WCI  14
LAMBERTVILLE   CLOUDY    28  20  72 W9        30.44S WCI  19
LANSING        CLOUDY    24  17  74 W12       30.41S WCI  13
LAPEER         NOT AVBL
MASON          LGT SNOW  23  21  92 W6        30.41S WCI  16
MONROE         CLOUDY    28  21  75 W9        30.42S WCI  19
MT. CLEMENS    CLOUDY    28  15  57 W10       30.36S WCI  19
PONTIAC        CLOUDY    25  19  78 W10       30.37R WCI  15
PORT HOPE        N/A     26  24  92 SW5       30.32F WCI  20
PORT HURON     CLOUDY    27  16  63 W6        30.37S WCI  20
TRI CITIES     CLOUDY    26  18  71 W13       30.39R WCI  15
MIDLAND        CLOUDY    27  16  63 W6        30.38R WCI  20
TROY           CLOUDY    28  19  69 W6        30.41S WCI  21
SAGINAW HB     CLOUDY    28  18  64 W14       30.38R WCI  17
$$
MIZ043>046-050>051-056>058-064>065-071>073-077>080-100200-
SOUTHWEST LOWER MICHIGAN

CITY           SKY/WX    TMP DP  RH WIND       PRES   REMARKS
BATTLE CREEK   FLURRIES  23  20  88 W8        30.43R WCI  14
BENTON HARBOR  CLOUDY    28  12  51 W13G18    30.47R WCI  17
BIG RAPIDS     CLOUDY    23  18  80 W9        30.37S WCI  13
COLDWATER      LGT SNOW  24  20  87 W9        30.44R WCI  14
FREMONT        FLURRIES  23  15  71 W6        30.41S WCI  16
HOLLAND        CLOUDY    27  13  55 W12       30.44R WCI  17
GRAND RAPIDS   LGT SNOW  23  19  85 W7        30.43S FOG     WCI  15
IONIA          CLOUDY    24  19  81 W7        30.40S WCI  15
KALAMAZOO      FLURRIES  25  17  72 SW7       30.44S WCI  17
LUDINGTON      FLURRIES  26  14  60 W7        30.40S WCI  18
MARSHALL       FLURRIES  24  19  83 W7        30.42S WCI  16
MOUNT PLEASANT CLOUDY    24  17  74 W8        30.38S WCI  15
MUSKEGON       CLOUDY    27  13  55 W14G20    30.43S WCI  16
SOUTH HAVEN    FLURRIES  28  14  57 NW10G20   30.45S WCI  18
$$
MIZ016>042-100200-
NORTHERN LOWER MICHIGAN

CITY           SKY/WX    TMP DP  RH WIND       PRES   REMARKS
ALPENA         MOCLDY    18  13  80 CALM      30.34S
BEAVER ISLAND  CLOUDY    24  15  67 W10G20    30.35S WCI  13
BELLAIRE       CLOUDY    23  22  96 CALM      30.35F
CADILLAC       FLURRIES  19  16  89 W5        30.32S WCI  12
CHARLEVOIX     LGT SNOW  26  21  82 NW10G18   30.36F WCI  16
FRANKFORT      CLOUDY    26  17  69 NW7       30.37S WCI  19
GAYLORD        LGT SNOW  21  17  84 CALM      30.29S FOG
GRAYLING       LGT SNOW  23  21  91 W3        30.32S VSB 3/4
HARBOR SPRINGS LGT SNOW  22  21  95 CALM      30.33F VSB 1
HOUGHTON LAKE  CLOUDY    23  19  85 W13       30.33S WCI  11
MANISTEE       FLURRIES  26  14  60 W12       30.38F WCI  16
OSCODA         CLOUDY    26  17  69 CALM      30.33S
PELLSTON       LGT SNOW  22  18  85 CALM      30.34S VSB 3/4
ROGERS CITY    LGT SNOW  22  17  79 SW5       30.34S WCI  16
TRAVERSE CITY  FLURRIES  24  21  88 CALM      30.36S
$$
MIZ007>008-015-100200-
EASTERN UPPER MICHIGAN

CITY           SKY/WX    TMP DP  RH WIND       PRES   REMARKS
KINROSS        LGT SNOW  16  13  88 CALM      30.33S FOG
MACKINAC ISLAN CLOUDY    21  15  77 N6        30.32S WCI  14
NEWBERRY       FLURRIES  14  13  98 SW3       30.32F
S. S. MARIE    LGT SNOW  18  15  88 CALM      30.33S FOG
MUNISING         N/A     20   9  62 W13       30.35F WCI   7
$$
MIZ004>006-011>014-085-100200-
CENTRAL UPPER MICHIGAN

CITY           SKY/WX    TMP DP  RH WIND       PRES   REMARKS
MANISTIQUE     CLOUDY    18  11  74 W9        30.35F WCI   7
ESCANABA       CLOUDY    22  12  65 NW7       30.39S WCI  13
MENOMINEE      CLOUDY    21   7  54 NW6       30.43R WCI  13
SAWYER-GWINN   CLOUDY    16   9  73 W12G22    30.35R WCI   3
$$
MIZ001>003-009>011-084-100200-
WESTERN UPPER MICHIGAN

CITY           SKY/WX    TMP DP  RH WIND       PRES   REMARKS
IRON MOUNTAIN  CLOUDY    16   3  56 W10       30.37S WCI   4
HOUGHTON       HVY SNOW  17  13  84 SW10      30.32F VSB 1/4 WCI   5
COPPER HARBOR    N/A     22  13  68 N13       30.35F WCI  10
IRONWOOD       CLOUDY    11   2  67 W10       30.41R WCI  -3
$$

ABBREVIATIONS USED IN REMARKS
   TC - TEMPERATURE IN CELSIUS
  WCI - WIND CHILL INDEX
   HX - HEAT INDEX
  VSB - VISIBILITY





USA.gov is the U.S. government's official web portal to all federal, state and local government web resources and services.